sat.trackr.live / text

‹ back to catalog

STARLINK-5589

NORAD 57334 · 2023-099G

PAYLOAD ACTIVE UNKNOWN

§ Identity

Operator
Country
US
Launch date
2023-07-16
Launch site
AFETR
Launch vehicle
Mass (kg)
RCS (m²)

Purposes: comms

External: N2YO · Heavens-Above · Gunter

§ Orbital elements

Epoch: 2026-05-25T02:43:32.575008Z

Period
94.27 min
Inclination
43.0013°
Eccentricity
0.0001291
Mean motion
15.27576859 rev/d
Perigee alt
482.2 km
Apogee alt
483.9 km
Semi-major
6,861.2 km
B*
2.6506e-5
RAAN
180.8672°
Arg perigee
269.3998°
Mean anomaly
90.6706°
Rev number
15,776

§ Raw data

STARLINK-55891 57334U 23099G   26145.11357147  .00000467  00000+0  26506-4 0  99912 57334  43.0013 180.8672 0001291 269.3998  90.6706 15.27576859157765

JSON: /api/v1/satellites/57334 · /tle

For live sub-satellite position, see the globe view (requires WebGL).

§ Visibility from observer

Set your observer location to see the next 7 days of passes ≥ 10°. The values pass through the URL so the page stays shareable.

No JS? Fill the form by hand. The geolocation button needs JavaScript.